Overview Statistics Trail Chart Weather Telemetry Raw packets
 

This is the latest recevied weather packets stored in our database for station/object KB4MOX. If no packets are shown the sender has not sent any weather packets the latest 10 day(s).

<< 79 80 81 82 83 84 85 >>
Time Temp. Humidity Pressure Rain* Wind** Luminosity Snow
1788042809 29.44° C 69% 1019 hPa 0 mm - 79 W/m² -
1788042507 29.44° C 68% 1019 hPa 0 mm - 76 W/m² -
1788042203 29.44° C 69% 1019.3 hPa 0 mm - 82 W/m² -
1788041898 29.44° C 68% 1019.3 hPa 0 mm - 85 W/m² -
1788041593 30° C 67% 1019.4 hPa 0 mm - 93 W/m² -
1788041293 30° C 67% 1019.3 hPa 0 mm - 106 W/m² -
1788040992 30° C 65% 1019.3 hPa 0 mm - 113 W/m² -
1788040691 30° C 65% 1019.2 hPa 0 mm - 115 W/m² -
1788040385 30° C 64% 1019.3 hPa 0 mm - 113 W/m² -
1788040081 30.56° C 63% 1019.1 hPa 0 mm - 108 W/m² -
1788039775 31.11° C 62% 1019.1 hPa 0 mm - 111 W/m² -
1788039470 31.67° C 59% 1019 hPa 0 mm - 126 W/m² -
1788039166 31.67° C 59% 1018.9 hPa 0 mm - 222 W/m² -
1788038861 32.22° C 58% 1019.1 hPa 0 mm - 317 W/m² -
1788038556 32.22° C 57% 1019.1 hPa 0 mm - 360 W/m² -
1788038255 31.11° C 59% 1019.2 hPa 0 mm - 465 W/m² -
1788037951 31.11° C 59% 1019.4 hPa 0 mm - 241 W/m² -
1788037645 31.67° C 57% 1019.3 hPa 0 mm - 170 W/m² -
1788037340 31.67° C 57% 1019.5 hPa 0 mm - 282 W/m² -
1788037039 32.22° C 58% 1019.2 hPa 0 mm - 278 W/m² -
1788036736 32.22° C 56% 1019.4 hPa 0 mm - 436 W/m² -
1788036432 32.22° C 55% 1019.3 hPa 0 mm - 595 W/m² -
1788036127 31.11° C 58% 1019.4 hPa 0 mm - 483 W/m² -
1788035827 31.67° C 57% 1019.4 hPa 0 mm - 231 W/m² -
1788035522 31.67° C 57% 1019.5 hPa 0 mm - 252 W/m² -

* Rain latest hour (hover to see other rain measurements)
** Current wind speed in m/s (hover to see current wind gust speed)